Location: Rounton
(54.4000°N, 1.3500°W)
Time: 04:21:45
(UTC+00:00)

Vanguard 1 - Pass Details

Date: 08 December 2021
Orbit: 652 x 3830 km, 34.2° (Epoch: 17 January)

Event Time Altitude Azimuth Distance (km) Brightness Sun altitude
Exits shadow 00:09:17 15° 110° (ESE) 6,056 13.9 -58.2°
Drops below altitude 10° 00:11:50 10° 105° (ESE) 6,391 14.1 -58.2°
Sets 00:16:40 0° 99° (E) 7,098 14.5 -58.1°
